www.pogodaiklimat.ru

Погода и климат >> Архив погоды >> Россия >> Якутия >> Колымская


ПОГОДА в Колымской

  • Прогноз погоды в Колымской
  • Монитор погоды в Колымской

АРХИВ ПОГОДЫ в Колымской

Время (UTC), дата Ветер
(напр.,м/с)
 
Видим.   Явления Облачность Т
(С)
Тd
(С)
f
(%)
Тe
(С)
Тes
(С)
Комфортность P
(гПа)
Po
(гПа)
Тmin
(С)
Tmax
(С)
R
(мм)
R24
(мм)
S
(см)
12 18.06 С 3 20 км 10/4 600 м
[Sc Ac As]
+16.1 +8.3 60 +16 +16 1013.6 1012.2
15 18.06 С 4 20 км 10/5 600 м
[Sc Ac As]
+13.1 +12 +12 1014.3 1012.9
18 18.06 С 4 20 км 9/0
[Ac As]
+10.9 +9.5 91 +8 +9 1015.2 1013.8
21 18.06 С 5 20 км 10/4 300 м
[Sc As op Ci fib]
+8.3 +6.1 86 +5 +6 1015.6 1014.2 +8.2
00 19.06 СВ 4 20 км 8/1 300 м
[Sc As trans]
+9.2 +5.9 80 +6 +10 1016.3 1014.9 +7.9
03 19.06 СВ 4 20 км 8/0
[Ci fib]
+14.3 +7.4 63 +13 +19 1015.7 1014.3
06 19.06 СВ 5 20 км 8/0
[Ci fib]
+15.4 +8.1 62 +14 +17 1015.2 1013.8
09 19.06 СВ 6 20 км 8/0
[Ci fib]
+12.1 +6.2 67 +10 +10 1015.3 1013.9 +15.8
12 19.06 СВ 5 20 км 9/8 200 м
[St Ac trans]
+5.8 +4.2 89 +1 +1 1015.7 1014.3
15 19.06 СВ 4 4000 м дымка 10/10 200 м
[St]
+3.8 +3.6 99 -1 -1 1015.6 1014.2
18 19.06 СВ 5 4000 м дымка 10/10 200 м
[St]
+3.8 +3.1 95 -1 -1 1015.3 1013.9
21 19.06 С 4 20 км 10/3 300 м
[St Ac As Cs]
+5.8 +3.4 85 +2 +3 1015.3 1013.9 +3.3
00 20.06 СВ 4 20 км 10/0
[Ac As Cs]
+10.8 +2.4 56 +9 +14 1014.8 1013.4
03 20.06 С 4 50 км 3/0
[Ac trans Ci fib]
+16.8 +10.0 64 +16 +23 1014.4 1012.5
06 20.06 СВ 4 20 км 8/0
[Ci fib]
+16.2 +6.7 53 +16 +19 1013.2 1011.8
09 20.06 С 3 20 км 6/0
[Ci fib]
+13.6 +6.8 63 +13 +13 1013.1 1011.2 +16.3
12 20.06 СВ 2 20 км 6/0
[Cs]
+9.7 +6.7 82 +8 +8 1013.1 1011.7
15 20.06 С 3 20 км 3/0
[Ci fib]
+6.7 +5.8 94 +3 +4 1012.9 1011.5
18 20.06 С 3 20 км 1/0
[Ci fib]
+7.9 +5.7 86 +5 +6 1013.1 1011.7
21 20.06 С 4 20 км 3/0
[Ci fib]
+12.5 +7.4 71 +11 +14 1013.3 1011.9 +5.9
00 21.06 СВ 5 20 км 3/0
[Cc]
+15.4 +7.6 60 +14 +19 1013.7 1012.3
03 21.06 С 5 20 км 3/0
[Cc]
+17.0 +8.2 56 +16 +21 1013.7 1012.3
06 21.06 С 6 20 км 1/1 600 м
[Cb calv]
+16.9 +10.1 64 +16 +18 1013.7 1012.3
09 21.06 СВ 7
{10}
20 км 1/0
[Ci fib]
+15.1 +9.5 69 +13 +14 1014.4 1013.0 +17.2
12 21.06 СВ 4
{10}
20 км 4/0
[Ac trans Cs]
+10.5 +8.3 86 +8 +8 1015.8 1014.4
15 21.06 СВ 5 20 км 10/0
[As trans Cs]
+9.5 +7.2 86 +6 +6 1016.5 1015.1
18 21.06 СВ 6
{10}
20 км 4/0
[Ci fib]
+9.8 +6.1 78 +6 +7 1017.3 1015.9
21 21.06 СВ 6 20 км ясно +13.3 +7.1 66 +11 +13 1018.4 1017.0 +9.2
00 22.06 СВ 6
{10}
20 км ясно +13.2 +6.8 65 +11 +15 1018.9 1017.5
03 22.06 СВ 6
{10}
20 км 1/0
[Ci fib]
+14.7 +7.4 62 +13 +17 1018.4 1017.0
06 22.06 СВ 7-10
{10}
20 км 3/1 600 м
[Cu hum Ci fib]
+13.7 +7.4 66 +11 +13 1018.0 1016.6
09 22.06 СВ 5
{10}
20 км 1/1 600 м
[Cu hum]
+11.6 +6.1 69 +9 +10 1018.1 1016.7 +15.2
12 22.06 СВ 5 20 км 1/0
[Ac trans]
+6.9 +4.8 86 +3 +3 1018.3 1016.9
15 22.06 СВ 4 20 км 3/1 300 м
[St Ci fib]
+5.3 +4.4 94 +1 +1 1018.6 1017.2
18 22.06 СВ 4 20 км ясно +7.5 +5.3 86 +4 +5 1018.6 1017.2
21 22.06 СВ 3 20 км 1/0
[Ci fib]
+14.7 +9.3 70 +14 +19 1018.6 1017.2 +5.2
00 23.06 В 4 20 км 6/4 300 м
[Cu med, cong Ci fib]
+21.4 +11.1 52 +23 +27 комфорт 1018.4 1017.0
03 23.06 В 5 20 км 8/8 300 м
[Cu med, cong Ci fib]
+22.0 +9.6 45 +24 +25 комфорт 1017.9 1016.5
06 23.06 В 8-11
{12}
20 км 6/4 300 м
[Cu med, cong Ci fib]
+21.6 +9.4 46 +23 +24 комфорт 1017.4 1016.0
09 23.06 В 5
{13}
20 км 6/3 300 м
[Cu med, cong Ac trans Ci fib]
+19.2 +11.2 60 +20 +20 1017.9 1016.5 +23.0
12 23.06 В 3 20 км 3/0
[Ac trans Ci fib]
+14.9 +11.4 80 +14 +14 1018.0 1016.6
15 23.06 В 3 20 км 3/0
[Ci fib]
+11.2 +9.8 91 +9 +9 1018.4 1017.0
18 23.06 В 3 20 км ясно +16.0 +13.0 82 +16 +17 1019.0 1017.6
21 23.06 Ю 2 20 км ясно +20.6 +12.7 61 +24 +29 комфорт 1019.8 1018.4 +10.8
00 24.06 Ю 2 20 км ясно +22.6 +8.3 40 +24 +34 комфорт 1020.2 1018.8
03 24.06 ЮВ 4 20 км 4/4 600 м
[Cu med, cong]
+24.3 +7.7 35 +25 +29 комфорт 1019.8 1018.4
06 24.06 ЮВ 3 20 км 4/4 600 м
[Cu med, cong]
+25.3 +7.6 32 +25 +28 комфорт 1019.4 1018.1
09 24.06 В 5
{10}
20 км 3/1 600 м
[Cu med, cong Ci fib]
+22.7 +11.5 49 +25 +26 комфорт 1019.5 1018.1 +25.4
12 24.06 В 3 20 км ясно +16.7 +10.5 67 +16 +17 1019.9 1018.5
15 24.06 СВ 2 20 км ясно +11.5 +9.5 88 +10 +10 1020.1 1018.7
18 24.06 СВ 2 20 км ясно +14.8 +12.6 87 +14 +16 1020.2 1018.8
21 24.06 В 2 20 км ясно +20.8 +14.5 67 +24 +30 комфорт 1020.3 1018.9 +10.9
00 25.06 В 4 20 км ясно +24.2 +12.2 47 +26 +33 жарко 1020.2 1018.8
03 25.06 В 5 20 км 1/1 600 м
[Cu hum]
+26.0 +5.7 27 +25 +30 комфорт 1019.3 1018.0
06 25.06 СВ 4 20 км ясно +25.6 +4.0 25 +25 +28 комфорт 1018.3 1017.0

 

Местоположение метеостанции Колымская (Якутия, Россия): широта 68.72 долгота 158.60 высота над уровнем моря 12 м.

В архиве по умолчанию представлена погода в Колымской за последнюю неделю. Архивные данные за месяц целиком и за предыдущие месяцы, начиная с января 2011 года, Вы можете получить, выбрав интересующий диапазон дат из раскрывающегося списка и нажав кнопку "Ввод!".


*Определитесь, кто Вы:
робот инопланетянин человек

Внимание! Время в таблицах - всемирное. Для получения местного времени необходимо прибавить поправку, которая равна 11 ч.

Смотрите также архив погоды в соседних городах и на ближайших метеорологических станциях:

Погода в Черском (Якутия, Россия) (109 км)
Погода в Константиновской (Чукотка, Россия) (120 км)
Погода в Анюйске (Чукотка, Россия) (125 км)
Погода в Андрюшкино (Якутия, Россия) (171 км)
Погода в Бухте Амбарчик (Чукотка, Россия) (177 км)
Погода в Островном (Чукотка, Россия) (235 км)
Погода в Среднеколымске (Якутия, Россия) (248 км)
Погода в Раучуе (Чукотка, Россия) (325 км)
Погода в Билибино (Чукотка, Россия) (328 км)
Погода в Баимке (Чукотка, Россия) (340 км)

Пояснения к столбцам:

Ветер - указаны скорость ветра в м/с - средняя за 10 мин, порывы в срок и между сроками (в фигурных скобках) и направление, откуда дует ветер: С - северный, СВ - северо-восточный, В - восточный, ЮВ - юго-восточный, Ю - южный, ЮЗ - юго-западный, З - западный, СЗ - северо-западный.
Видимость - горизонтальная дальность видимости в метрах или километрах. При видимости от 1 до 10 км при отсутствии осадков обычно наблюдается дымка, при ухудшении видимости до 1 км и менее - туман. В сухую погоду видимость может ухудшаться дымом, пылью или мглою.
Явления - указаны атмосферные явления, наблюдавшиеся в срок или в последний час перед сроком; фигурными скобками обозначены явления, наблюдавшиеся между сроками (за 1-3 часа до срока); квадратными скобками обозначены град или гололедные отложения с указанием их диаметра в мм.
Облачность - указаны через наклонную черту общая и нижняя облачность в баллах и высота нижней границы облаков в метрах; квадратными скобками обозначены формы облаков: Ci - перистые, Cs - перисто-слоистые, Cc - перисто-кучевые, Ac - высококучевые, As - высокослоистые, Sc - слоисто-кучевые, Ns - слоисто-дождевые, Cu - кучевые, Cb - кучево-дождевые. Подробнее классификацию облаков см. в Атласе облаков (PDF).
T - Температура воздуха - температура, измеренная на высоте 2 м над землей.
Td - Температура точки росы - температура, при понижении до которой содержащийся в воздухе водяной пар достигнет насыщения.
f - Относительная влажность воздуха - влажноcть воздуха, измеренная на высоте 2 м над землей.
Te - Эффективная температура - температура, которую ощущает одетый по сезону человек в тени. Характеристика душности погоды. При расчете учитывается влияние влажности воздуха и скорости ветра на теплоощущения человека.
Tes - Эффективная температура на солнце - температура, которую ощущает человек, с поправкой на солнечный нагрев. Характеристика знойности погоды. Зависит от высоты солнца над горизонтом, облачности и скорости ветра. Ночью, в пасмурную погоду, а также при ветре 12 м/с и более поправка равна нулю.
P - Атмосферное давление - приведенное к уровню моря атмосферное давление.
Po - Атмосферное давление - измеренное на уровне метеостанции атмосферное давление.
Tmin - Минимальная температура - минимум температуры воздуха на высоте 2 м над землей.
Tmax - Максимальная температура - максимум температуры воздуха на высоте 2 м над землей.
R - Количество осадков - Количество выпавших осадков за период времени, мм. При наведении курсора мыши на число - период времени, за который выпало указанное количество осадков.
R24 - Количество осадков - Количество выпавших осадков за 24 часа, мм.
S - Снежный покров - Высота снежного покрова, см. При наведении курсора мыши на число - состояние снежного покрова и степень покрытия местности в баллах.